Total_Precipitation_Accumulation
1.98 1.51 0.95 0.52 0.41 0.38 0.32 0.42 0.54 0.58 0.58 0.60 0.63 0.50 0.47 0.41 0.37 0.39 0.37 0.39 0.47 0.59 0.72 0.85 0.99 1.14 1.26 1.24 1.29 1.39 1.45 1.56 1.67 1.70 1.63 1.56 1.45 1.39 1.31 1.16 1.09 0.99 0.92 0.95
1.67 1.12 0.51 0.34 0.35 0.34 0.32 0.37 0.47 0.51 0.51 0.59 0.60 0.51 0.45 0.45 0.41 0.38 0.36 0.36 0.45 0.57 0.67 0.78 0.91 1.03 1.18 1.27 1.30 1.43 1.50 1.53 1.56 1.62 1.70 1.69 1.74 1.66 1.60 1.50 1.37 1.24 1.16 1.15
1.29 0.76 0.42 0.43 0.46 0.38 0.31 0.32 0.39 0.44 0.49 0.58 0.60 0.60 0.46 0.44 0.42 0.35 0.32 0.35 0.43 0.59 0.66 0.74 0.86 0.90 0.98 1.17 1.37 1.46 1.50 1.54 1.57 1.78 2.14 2.11 2.03 1.92 1.79 1.67 1.58 1.45 1.39 1.38
1.14 0.65 0.49 0.48 0.42 0.37 0.33 0.24 0.30 0.38 0.56 0.64 0.64 0.80 0.51 0.50 0.49 0.40 0.35 0.35 0.44 0.54 0.58 0.65 0.82 0.86 0.89 1.01 1.26 1.54 1.61 1.69 1.79 1.98 2.20 2.26 2.03 1.85 1.75 1.72 1.71 1.65 1.51 1.49
1.08 0.74 0.60 0.54 0.40 0.36 0.35 0.25 0.31 0.38 0.49 0.58 0.49 0.62 0.57 0.49 0.52 0.52 0.48 0.47 0.52 0.56 0.59 0.64 0.81 0.90 0.89 0.95 1.12 1.38 1.60 1.67 1.84 1.99 2.10 2.25 2.07 1.80 1.78 1.79 1.72 1.70 1.61 1.49
0.74 0.63 0.67 0.55 0.38 0.37 0.37 0.35 0.40 0.48 0.57 0.59 0.41 0.51 0.58 0.54 0.56 0.58 0.59 0.64 0.67 0.64 0.65 0.69 0.80 0.82 0.82 0.86 0.96 1.14 1.32 1.41 1.53 1.69 1.88 2.05 2.07 1.95 1.83 1.74 1.66 1.60 1.58 1.53
0.88 0.71 0.59 0.52 0.50 0.43 0.43 0.55 0.74 0.85 0.74 0.51 0.34 0.40 0.57 0.52 0.52 0.56 0.63 0.69 0.70 0.67 0.64 0.68 0.72 0.71 0.69 0.73 0.83 0.94 1.04 1.14 1.25 1.40 1.59 1.78 1.90 1.93 1.88 1.80 1.68 1.55 1.46 1.39
0.86 0.96 0.57 0.46 0.46 0.45 0.37 0.44 0.59 0.62 0.42 0.33 0.24 0.36 0.52 0.52 0.55 0.56 0.61 0.61 0.60 0.59 0.61 0.70 0.77 0.74 0.71 0.72 0.74 0.75 0.84 0.99 1.08 1.16 1.33 1.47 1.55 1.59 1.59 1.62 1.59 1.51 1.42 1.35
0.47 0.60 0.39 0.29 0.25 0.28 0.34 0.31 0.26 0.44 0.31 0.25 0.26 0.33 0.47 0.51 0.52 0.53 0.56 0.52 0.49 0.48 0.57 0.67 0.71 0.68 0.66 0.66 0.65 0.66 0.72 0.82 0.87 0.90 1.01 1.06 1.13 1.18 1.24 1.29 1.30 1.28 1.29 1.33
0.25 0.38 0.32 0.24 0.23 0.21 0.20 0.17 0.25 0.48 0.43 0.29 0.22 0.25 0.46 0.49 0.49 0.48 0.46 0.43 0.41 0.46 0.52 0.54 0.53 0.52 0.53 0.58 0.61 0.61 0.63 0.68 0.68 0.68 0.74 0.76 0.79 0.84 0.92 1.00 1.00 0.98 1.01 1.07
0.15 0.25 0.28 0.23 0.26 0.20 0.14 0.17 0.23 0.32 0.29 0.25 0.19 0.28 0.32 0.38 0.41 0.39 0.37 0.37 0.37 0.42 0.42 0.41 0.39 0.39 0.42 0.45 0.45 0.45 0.48 0.55 0.56 0.51 0.51 0.54 0.57 0.61 0.69 0.80 0.88 0.90 0.89 0.86
0.11 0.18 0.22 0.17 0.10 0.06 0.08 0.11 0.19 0.33 0.24 0.19 0.16 0.24 0.24 0.27 0.29 0.28 0.28 0.30 0.31 0.33 0.34 0.34 0.33 0.33 0.34 0.35 0.35 0.38 0.41 0.44 0.43 0.40 0.39 0.41 0.42 0.43 0.49 0.58 0.66 0.71 0.75 0.78
0.11 0.15 0.23 0.23 0.16 0.10 0.11 0.11 0.14 0.29 0.44 0.28 0.21 0.25 0.24 0.23 0.23 0.22 0.24 0.26 0.26 0.24 0.23 0.23 0.22 0.22 0.23 0.26 0.30 0.32 0.31 0.29 0.29 0.30 0.30 0.31 0.32 0.32 0.33 0.37 0.42 0.46 0.53 0.62
0.16 0.10 0.13 0.17 0.13 0.18 0.19 0.11 0.15 0.48 0.59 0.21 0.10 0.17 0.18 0.18 0.18 0.21 0.24 0.22 0.19 0.18 0.15 0.13 0.11 0.11 0.12 0.18 0.21 0.22 0.20 0.20 0.23 0.24 0.24 0.25 0.26 0.26 0.27 0.27 0.29 0.31 0.32 0.36
0.12 0.11 0.07 0.06 0.09 0.21 0.22 0.14 0.16 0.31 0.22 0.18 0.08 0.09 0.11 0.11 0.13 0.17 0.18 0.15 0.11 0.10 0.08 0.06 0.06 0.07 0.09 0.12 0.15 0.16 0.18 0.20 0.23 0.22 0.20 0.19 0.19 0.21 0.22 0.21 0.19 0.17 0.16 0.17
0.11 0.11 0.08 0.07 0.07 0.12 0.16 0.09 0.08 0.09 0.07 0.06 0.05 0.06 0.06 0.09 0.14 0.17 0.16 0.12 0.09 0.07 0.05 0.04 0.04 0.04 0.04 0.08 0.16 0.21 0.24 0.25 0.22 0.20 0.18 0.17 0.18 0.19 0.20 0.18 0.14 0.12 0.11 0.12
0.06 0.09 0.15 0.09 0.03 0.11 0.14 0.08 0.07 0.05 0.03 0.04 0.06 0.05 0.07 0.14 0.20 0.22 0.16 0.09 0.06 0.04 0.03 0.02 0.02 0.02 0.04 0.11 0.25 0.37 0.44 0.39 0.31 0.27 0.23 0.21 0.21 0.20 0.21 0.20 0.20 0.19 0.18 0.18
0.04 0.09 0.19 0.12 0.08 0.18 0.13 0.06 0.03 0.02 0.03 0.05 0.05 0.05 0.08 0.11 0.16 0.16 0.09 0.04 0.03 0.02 0.02 0.01 0.01 0.03 0.06 0.14 0.27 0.37 0.45 0.48 0.43 0.39 0.37 0.34 0.34 0.37 0.39 0.40 0.40 0.38 0.37 0.37
0.03 0.10 0.22 0.16 0.12 0.07 0.04 0.03 0.03 0.04 0.04 0.04 0.04 0.03 0.03 0.05 0.09 0.10 0.06 0.03 0.02 0.02 0.01 0.01 0.01 0.03 0.08 0.14 0.23 0.33 0.42 0.47 0.51 0.57 0.61 0.60 0.59 0.63 0.66 0.71 0.72 0.68 0.65 0.63
0.03 0.09 0.22 0.19 0.14 0.04 0.02 0.01 0.02 0.03 0.06 0.02 0.03 0.02 0.02 0.03 0.07 0.09 0.07 0.06 0.04 0.03 0.03 0.03 0.03 0.05 0.10 0.18 0.28 0.45 0.56 0.62 0.65 0.71 0.76 0.73 0.72 0.73 0.74 0.74 0.74 0.70 0.64 0.61
0.08 0.13 0.20 0.18 0.14 0.03 0.01 0.01 0.01 0.04 0.05 0.02 0.02 0.03 0.03 0.04 0.05 0.04 0.06 0.09 0.10 0.10 0.10 0.12 0.14 0.18 0.26 0.34 0.48 0.71 0.82 0.77 0.71 0.70 0.66 0.60 0.56 0.51 0.48 0.46 0.43 0.41 0.37 0.34
0.02 0.05 0.07 0.07 0.09 0.03 0.01 0.01 0.02 0.02 0.01 0.01 0.02 0.03 0.05 0.04 0.03 0.04 0.04 0.07 0.12 0.15 0.16 0.19 0.24 0.30 0.36 0.40 0.47 0.56 0.59 0.54 0.49 0.43 0.36 0.30 0.28 0.25 0.23 0.21 0.20 0.18 0.16 0.14
0.02 0.03 0.04 0.03 0.04 0.02 0.01 0.01 0.01 0.01 0.01 0.01 0.03 0.04 0.04 0.03 0.02 0.03 0.04 0.04 0.06 0.08 0.09 0.10 0.12 0.13 0.16 0.17 0.19 0.21 0.19 0.16 0.14 0.13 0.10 0.08 0.08 0.08 0.07 0.07 0.06 0.05 0.04 0.04
0.03 0.02 0.03 0.03 0.02 0.02 0.01 0.01 0.01 0.01 0.01 0.01 0.03 0.03 0.03 0.04 0.03 0.03 0.04 0.04 0.04 0.04 0.04 0.05 0.05 0.04 0.04 0.05 0.05 0.05 0.04 0.04 0.04 0.04 0.04 0.04 0.03 0.03 0.04 0.04 0.04 0.04 0.04 0.04
0.04 0.03 0.04 0.04 0.02 0.02 0.01 0.01 0.01 0.01 0.01 0.01 0.01 0.02 0.02 0.03 0.04 0.04 0.05 0.04 0.04 0.04 0.04 0.04 0.04 0.04 0.04 0.04 0.04 0.04 0.04 0.04 0.04 0.04 0.05 0.05 0.05 0.05 0.06 0.06 0.07 0.08 0.08 0.09
0.02 0.03 0.06 0.05 0.02 0.02 0.01 0.00 0.01 0.01 0.01 0.01 0.01 0.01 0.02 0.02 0.02 0.03 0.03 0.03 0.03 0.04 0.05 0.05 0.05 0.05 0.05 0.05 0.06 0.06 0.06 0.07 0.07 0.07 0.08 0.09 0.10 0.10 0.11 0.11 0.11 0.13 0.13 0.15